Weather in Gremyach

Ukraine / Chernihiv Region     52°20′26″N   33°17′18″E
В апреле 2022 года жителям России запретили посещать сайт meteo.paraplan.net по решению Генеральной прокуратуры. Аудитория сайта уменьшилась в 10 раз. Владельцы сайта не видят смысла в поддержке погодного сервера в таких условиях. Сайт будет закрыт в октябре.
temp.,
°C
wind,
m/s
gust,
m/s
humid.,
%
clouds,
%
prec.,
mm/h
press.,
hPa
HPBL,
m
25 september, sun
sun2500:00+8wnw81586100 0.9 10071345
03:00+8wnw91581100 2.6 10081220
06:00+8wnw91679100 0.1 1008783
09:00+8wnw8157595 0.1 1009810
12:00+12wnw912533 0.0 10101335
15:00+14wnw912486 0.0 10101737
18:00+12w611585 0.0 1011471
21:00+8w411727 0.0 1012266
26 september, mon
mon2600:00+7wsw498247 0.0 1013177
03:00+9wsw3870100 0.0 1012235
06:00+9wsw3668100 0.0 1012148
09:00+10wsw376899 0.0 1013264
12:00+15sw445213 0.0 10121304
15:00+16sw565833 0.3 10121342
18:00+13ssw587288 0.1 1011271
21:00+10ssw3689100 0.1 1012141
27 september, tue
tue2700:00+11ssw3590100 0.0 1011203
03:00+10s2391100 0.0 1011100
06:00+10ese2495100 0.1 1010174
09:00+11ese3792100 0.3 1010296
12:00+15ese677179 0.0 1009907
15:00+16se6771100 0.1 1007975
18:00+13se51095100 1.6 1006513
21:00+13se51096100 4.5 1006473
28 september, wed
wed2800:00+12ese61296100 2.3 1004494
03:00+13ese71395100 7.4 1002583
06:00+12ese71391100 1.4 1000565
09:00+12ese61194100 2.8 999534
12:00+12se4894100 0.3 999455
15:00+14s2393100 0.4 1000368
18:00+14nw1290100 0.2 100157
21:00+13wnw4989100 0.5 1003328
29 september, thu
thu2900:00+10w369016 0.0 1005108
03:00+11wnw389036 0.0 1007230
06:00+11wnw368970 0.0 1008141
09:00+12wnw358367 0.0 1010233
12:00+16wnw346769 0.0 1011894
15:00+17wnw2356100 0.0 10121222
18:00+14n1167100 0.0 101310
21:00+12ese2274100 0.0 101510